Location: Elizabeth Ann Machol Dragonfly Observatory
(32.8132°N, 108.2740°W)
Time: 03:24:18
(UTC-06:00)

Envisat - Visible Passes

Search period start: 19 October 2019 00:00
Search period end: 29 October 2019 00:00
Orbit: 764 x 766 km, 98.1° (Epoch: 19 October)

Date Brightness Start Highest point End Pass type
(mag) Time Alt. Az. Time Alt. Az. Time Alt. Az.
19 Oct 5.5 20:26:37 10° SW 20:30:22 21° W 20:34:10 10° NW visible
20 Oct 3.9 19:48:33 10° S 19:53:28 50° W 19:58:24 10° NNW visible
21 Oct 3.0 19:11:43 10° SSE 19:16:43 66° ENE 19:21:45 10° N visible
21 Oct 6.3 20:55:05 10° WSW 20:56:05 11° W 20:57:07 10° W visible
22 Oct 5.1 20:14:48 10° SSW 20:19:03 27° W 20:23:19 10° NW visible
23 Oct 6.4 06:50:40 10° ENE 06:53:01 13° E 06:55:20 10° ESE visible
23 Oct 3.4 19:37:10 10° S 19:42:11 67° W 19:47:14 10° NNW visible
24 Oct 3.2 19:00:37 10° SSE 19:05:30 50° ENE 19:10:23 10° N visible
24 Oct 6.0 20:42:04 10° SW 20:44:44 14° W 20:47:25 10° WNW visible
25 Oct 4.6 20:03:09 10° SSW 20:07:44 35° W 20:12:21 10° NNW visible
26 Oct 3.0 19:25:52 10° SSE 19:30:55 86° WSW 19:36:00 10° NNW visible
27 Oct 3.4 18:49:37 10° SE 18:54:17 39° ENE 18:58:58 10° N visible
27 Oct 5.7 20:29:52 10° SW 20:33:23 19° W 20:36:54 10° NW visible
28 Oct 4.1 19:51:36 10° S 19:56:26 45° W 20:01:18 10° NNW visible
